STARLINK-1054 (44759 NORAD) Tracking and Keplerian Element Data

This shows tracking and keplerian element data for the satellite.

Feedback or suggestion? Click here.




ElementValue
Catalog44759
NameSTARLINK-1054
Epoch Orbit1035
Epoch Day17.91667824
Epoch Year2020
RAAN214.4729
Inclination53.0086
Eccentricity0.0001545
Argument of Perigee68.0633
Mean Anonmoly51.9652
Mean Motion15.05569166
Decay Rate0.00024365
L11 44759U 19074AY 20017.91667824 .00024365 00000-0 16861-2 0 9997
L22 44759 53.0086 214.4729 0001545 68.0633 51.9652 15.05569166 10354

Live tracking and technical data element details for STARLINK-1054 (NORAD 44759). STARLINK-1054 can be tracked NOW for your location showing map with azimuth and elevation plus other details from your city location.

Track the satellite on the map from your city or location and see movement details for azimuth, elevation, latitude, longitude, range, height, and movement on the map or in text.







IsCatalogInMostPopularTable: catalog: 44759, numindb: 13
Update: records affected: 1



GetName: 44759 STARLINK-1054

Hit Count: updated at: Mon, 20 Jan 2020 04:43:46 GMT